Погода в Шефшауене

Марокко     35°09′54″N   5°15′42″W
темп.,
°C
ветер,
м/с
пор.,
м/с
влажн.,
%
обл.,
%
осадки,
мм/ч
давл.,
гПа
погр.,
м
14 мая, пт
пт1400:00+11зюз22675 0.0 101929
03:00+10зюз12810 0.0 101921
06:00+11ююз22870 0.0 101833
09:00+18зюз22540 0.0 1018530
12:00+23зсз22423 0.0 10171321
15:00+24с32391 0.0 10161353
18:00+20ссв33530 0.0 1016343
21:00+15всв22641 0.0 101818
15 мая, сб
сб1500:00+15вюв22410 0.0 101813
03:00+14в22390 0.0 101715
06:00+14в22435 0.0 101717
09:00+22св22320 0.0 1017328
12:00+26ссв32283 0.0 1016863
15:00+28ссв33285 0.0 10141044
18:00+22св23526 0.0 1015139
21:00+18всв22372 0.0 101617
16 мая, вс
вс1600:00+18юв22254 0.0 101612
04:00+18в12265 0.0 101411
07:00+18вюв12312 0.0 101511
10:00+27св21262 0.0 1014355
13:00+30с332325 0.0 10131450
16:00+28ссв43306 0.0 1013552
19:00+25ссв33380 0.0 101395
22:00+19св12321 0.0 101515
17 мая, пн
пн1701:00+19всв11350 0.0 101512
04:00+17зюз22400 0.0 101517
07:00+16юз33575 0.0 101730
10:00+23зюз23415 0.0 1017506
13:00+27з33250 0.0 10171344
16:00+27сз32255 0.0 10161624
19:00+23с234440 0.0 1018220
22:00+18ссв115299 0.0 102011
18 мая, вт
вт1801:00+17в1151100 0.0 102011
04:00+15в22633 0.0 102011
07:00+14всв33816 0.0 102156
10:00+19св336745 0.0 1021432
13:00+22св326011 0.0 1021654
16:00+23св43588 0.0 1019669
19:00+17св448322 0.0 1020291
22:00+13всв349432 0.0 102285